RADUGA 1 [-]

Last updated on Jan. 18, 2020, 4:38 a.m. UTC

1 08513U 75123A   20016.81410330 -.00000118  00000-0  00000+0 0  9994
2 08513   8.6258 300.4127 0003488 203.1424 343.9798  1.00248150171445
UTC
Height (km)
Latitude
Longitude
Inclination
Orbital Period
UTC large
Height (km)
Speed (km/s)
/
Latitude / Longitude
Inclination (degrees)
Orbital Period (minutes)
Azimuth
Elevation
Range (km)
Doppler Factor
iOS Compass Heading
iOS Angle

Next 30 passes for location: Hong Kong

Rise time Rise Azimuth (degrees) Set time Set Azimuth (degrees) Duration Max altitude (degrees)

No matching passes for this satellites